Retour au catalogue

STARLINK-36575

ActifCommunicationsSSO
NORAD 67569·PAYLOAD·🇺🇸 United States

Lancé Jan 25, 2026 depuis Vandenberg Space Force Base

Loading…

Prochains Passages (prochaines 24 heures)

TLE

FraisSource: CelesTrak SupGP

Époque: Sep 15, 2026, 03:26 UTC

1 67569C 26016J   26258.14354167 -.00010991  00000+0 -34113-3 0  2586
2 67569  97.2848 317.8659 0000955  94.3110 284.5530 15.33451265    12

Suivez STARLINK-36575 en temps réel avec AllMySat

Download on the App Store